Location: Rio Tanui
(39.9167°N, 8.5167°E)
Time: 02:43:02
(UTC+00:00)

IRIDIUM 103 - Pass Details

Date: 08 February 2023
Orbit: 776 x 779 km, 86.4° (Epoch: 01 April)

Event Time Altitude Azimuth Distance (km) Brightness Sun altitude
Rises 17:45:53 0° 358° (N) 3,268 7.5 -10.6°
Reaches altitude 10° 17:48:15 10° 360° (N) 2,336 6.7 -11.0°
Maximum altitude 17:53:29 79° 87° (E) 796 4.3 -12.0°
Drops below altitude 10° 17:58:41 10° 175° (S) 2,319 6.8 -13.0°
Sets 18:01:01 0° 176° (S) 3,242 7.6 -13.4°
